Miscellaneous Local Product
Issued by NWS Hastings, NE

Home | Current Version | Previous Version | Text Only | Print | Product List | Glossary Off
Versions: 1 2 3 4 5 6 7 8 9 10 11 12 13 14 15 16 17 18 19 20 21 22 23 24 25 26 27 28 29 30 31 32 33 34 35 36 37 38 39 40 41 42 43 44 45 46 47 48 49 50

862
AXUS43 KGID 171402
MISGRI

GID CWA HOURLY WEATHER ROUNDUP
NATIONAL WEATHER SERVICE HASTINGS NE
800 AM CST TUE JAN 17 2017

NOTE: "FAIR" INDICATES FEW OR NO CLOUDS BELOW 12,000 FEET WITH NO
SIGNIFICANT WEATHER AND/OR OBSTRUCTIONS TO VISIBILITY.

...SOUTH CENTRAL NEBRASKA...

CITY           SKY/WX    TMP DP  RH WIND       PRES   REMARKS
GRAND ISLAND   CLOUDY    20  19  96 W6        30.07S WCI  12
HASTINGS       CLEAR     24  20  84 NW6       30.07S WCI  17
KEARNEY        CLOUDY    21  16  79 CALM      30.06F
ORD            CLOUDY    17  13  84 N6        30.04S WCI   9
YORK           CLEAR     25  21  86 MISG      30.07S
AURORA         CLEAR     22  20  92 CALM      30.06F
LEXINGTON      CLOUDY    24  20  85 NW8       30.06S WCI  14
HOLDREGE       CLOUDY    26  22  85 CALM      30.06S
HEBRON         PTCLDY    26  23  90 CALM      30.10R

...NEBRASKA PANHANDLE...

CITY           SKY/WX    TMP DP  RH WIND       PRES   REMARKS
CHADRON        CLOUDY     7   2  80 CALM      30.02R
ALLIANCE       CLOUDY     7   4  87 S3        30.01F
SCOTTSBLUFF    CLOUDY    14   8  77 N5        30.04R WCI   6
SIDNEY         CLOUDY    15   8  73 NW14      30.05R WCI   0

...WESTERN AND NORTH CENTRAL NEBRASKA...

CITY           SKY/WX    TMP DP  RH WIND       PRES   REMARKS
VALENTINE      CLEAR     12   7  80 W3        30.03S
AINSWORTH      CLOUDY    17  15  91 W7        30.03S WCI   8
ONEILL         CLOUDY    19  16  88 NW7       30.04S WCI  10
BROKEN BOW     CLOUDY    25  18  74 N13       30.04R WCI  14
IMPERIAL       CLOUDY    20  14  77 W5        30.08S WCI  13
NORTH PLATTE   CLOUDY    19  16  88 NW5       30.07R WCI  12
MCCOOK         CLOUDY    24  20  84 W13       30.09S WCI  12

...EASTERN NEBRASKA...

CITY           SKY/WX    TMP DP  RH WIND       PRES   REMARKS
NORFOLK        CLOUDY    17  13  84 NW9       30.04R WCI   6
SO SIOUX CITY  CLOUDY    20  15  81 NW12      30.05R WCI   8
TEKAMAH        CLOUDY    24  20  84 NW10      30.06R WCI  14
COLUMBUS       CLOUDY    21  16  79 CALM      30.07R
ALBION         CLOUDY    16  13  88 CALM      30.05R FOG
OMAHA EPPLEY   FRZ DRZL  27  22  81 W12       30.06R WCI  17
OFFUTT AFB     CLOUDY    27  27 100 W7        30.06R WCI  20
MILLARD        CLOUDY    28  24  86 W5        30.07R WCI  23
LINCOLN        CLEAR     24  19  81 NW9       30.09S WCI  14
NEBRASKA CITY  CLOUDY    29  29 100 NW13      30.06R FOG     WCI  19
BEATRICE       CLOUDY    27  23  86 NW12      30.08S WCI  17
FALLS CITY     CLOUDY    32  30  92 NW9       30.05R WCI  24

...NORTHERN KANSAS...

CITY           SKY/WX    TMP DP  RH WIND       PRES   REMARKS
GOODLAND       CLOUDY    23  18  81 W8        30.09R WCI  14
HILL CITY      CLEAR     29  24  82 NW8       30.10S WCI  21
NORTON         SUNNY     28  21  74 W12       30.08S WCI  18
PHILLIPSBURG   CLEAR     27  23  86 W5        30.11R WCI  21
SMITH CENTER   CLEAR     25  21  86 NW5       30.11R WCI  19
HAYS           CLOUDY    32  28  85 NW6       30.12R WCI  26
RUSSELL        CLOUDY    31  27  85 NW8       30.10R WCI  23
CONCORDIA      CLOUDY    28  25  88 NW8       30.09R WCI  20
SALINA         CLOUDY    32  28  85 NW7       30.12R WCI  26
TOPEKA         CLOUDY    35  31  85 NW6       30.08R WCI  30



USA.gov is the U.S. government's official web portal to all federal, state and local government web resources and services.